Find Kuangda Nanhu

NORAD ID: 57425 Int'l Des: 2023-104 Owner: SXAK/CUMT Country: CN decayed
LEOCIRCULARRETROGRADE

Historical Track — Mar 29, 2026

正在加载3D地球...

关于 Kuangda Nanhu

正在加载描述...

高度历史

Loading altitude history...

两行轨道根数

1 57425U 23104B 26087.82909689 .09696374 24827-5 29503-3 0 9991
2 57425 97.2606 178.5517 0014627 269.1524 90.8102 16.43696874151155
Epoch: Mar 28, 2026 • Age: 756 hours

当前状态

Position data unavailable
发射日期 Jul 23, 2023
运行时间 2.7 years
衰减日期 Mar 29, 2026
类型 other

技术详情

分类 Payload
质量 100.00 kg
干质量 100.00 kg
总质量 100.00 kg
长度 0.40 m
直径 0.40 m
跨度 1.50 m
形状 Box + 2 Pan
制造商 DFH
平台类型 AS
阶段状态 Unknown Transfer Status
所有者/国家 SXAK/CUMT/CN

Most Searched